Zurück zum Katalog

CZ-4 DEB

AktivSSO
NORAD 35383·DEBRIS·🇨🇳 China

Gestartet Oct 21, 2003 von Taiyuan Satellite Launch Center

Loading…

Nächste Überflüge (nächste 24 Stunden)

TLE

AktuellSource: Space-Track

Epoche: Sep 11, 2026, 18:02 UTC

1 35383U 03049K   26254.75168543  .00000162  00000-0  45343-4 0  9998
2 35383  98.6538 265.5446 0047648 237.0835 122.5775 14.58919870724938

Verfolge CZ-4 DEB in Echtzeit mit AllMySat

Download on the App Store